CEB235 RPLL-RPSP

Flight info

Callsign CEB235
Flight time 1h 11m
Altitude 39000
Route IPATA2V IPATA W25 BATAY BATAY1P
Aircraft A319/M-SDE3FGHIRWY/LB1

Departure

Time 2026-04-15 21:46
Airport Ninoy Aquino International Airport (RPLL)

Arrival

Time 2026-04-15 22:58
Airport Bohol-Panglao International Airport (RPSP)
Time Latitude Longitude Altitude Speed Heading
2026-04-15 21:38 14.52379 121.00796 83 ft 0 kts 46°
2026-04-15 21:40 14.52366 121.00781 83 ft 4 kts 46°
2026-04-15 21:40 14.52347 121.00761 83 ft 3 kts 46°
2026-04-15 21:40 14.52329 121.00742 83 ft 3 kts 46°
2026-04-15 21:41 14.52320 121.00732 83 ft 2 kts 47°
2026-04-15 21:41 14.52309 121.00720 83 ft 0 kts 14°
2026-04-15 21:41 14.52300 121.00723 83 ft 3 kts 343°
2026-04-15 21:41 14.52288 121.00726 83 ft 1 kts 330°
2026-04-15 21:42 14.52283 121.00730 83 ft 0 kts 316°
2026-04-15 21:42 14.52284 121.00728 83 ft 0 kts 316°
2026-04-15 21:42 14.52286 121.00726 83 ft 0 kts 316°
2026-04-15 21:42 14.52289 121.00724 83 ft 0 kts 316°
2026-04-15 21:43 14.52295 121.00717 83 ft 2 kts 316°
2026-04-15 21:43 14.52309 121.00704 83 ft 3 kts 316°
2026-04-15 21:43 14.52355 121.00658 83 ft 13 kts 315°
2026-04-15 21:43 14.52423 121.00590 83 ft 14 kts 315°
2026-04-15 21:44 14.52497 121.00513 83 ft 15 kts 315°
2026-04-15 21:44 14.52543 121.00439 83 ft 13 kts 277°
2026-04-15 21:44 14.52540 121.00336 83 ft 14 kts 267°
2026-04-15 21:44 14.52529 121.00259 83 ft 6 kts 209°
2026-04-15 21:45 14.52486 121.00279 83 ft 8 kts 136°
2026-04-15 21:45 14.52445 121.00322 83 ft 9 kts 137°
2026-04-15 21:45 14.52393 121.00375 83 ft 13 kts 135°
2026-04-15 21:45 14.52181 121.00594 84 ft 84 kts 135°
2026-04-15 21:46 14.51630 121.01163 90 ft 151 kts 133°
2026-04-15 21:46 14.50912 121.01931 745 ft 156 kts 132°
2026-04-15 21:46 14.50213 121.02692 1510 ft 159 kts 133°
2026-04-15 21:46 14.49498 121.03439 2205 ft 161 kts 135°
2026-04-15 21:47 14.48796 121.04158 2614 ft 174 kts 135°
2026-04-15 21:47 14.47913 121.05057 3082 ft 191 kts 135°
2026-04-15 21:47 14.46957 121.06036 3563 ft 209 kts 135°
2026-04-15 21:47 14.45896 121.07124 4112 ft 227 kts 135°
2026-04-15 21:48 14.44744 121.08312 4665 ft 247 kts 135°
2026-04-15 21:48 14.43553 121.09616 4973 ft 272 kts 130°
2026-04-15 21:48 14.42388 121.11192 5558 ft 285 kts 124°
2026-04-15 21:48 14.41342 121.12845 6692 ft 281 kts 122°
2026-04-15 21:49 14.40328 121.14490 7650 ft 283 kts 122°
2026-04-15 21:49 14.39333 121.16106 8484 ft 287 kts 122°
2026-04-15 21:49 14.38324 121.17741 9316 ft 291 kts 122°
2026-04-15 21:49 14.37299 121.19396 10139 ft 294 kts 122°
2026-04-15 21:50 14.36287 121.21027 10771 ft 303 kts 122°
2026-04-15 21:50 14.35142 121.22870 11237 ft 320 kts 122°
2026-04-15 21:50 14.33958 121.24773 11966 ft 327 kts 122°
2026-04-15 21:50 14.32807 121.26623 12781 ft 330 kts 122°
2026-04-15 21:51 14.31681 121.28432 13522 ft 333 kts 122°
2026-04-15 21:51 14.30522 121.30296 14241 ft 336 kts 122°
2026-04-15 21:51 14.29354 121.32172 14939 ft 340 kts 122°
2026-04-15 21:51 14.28191 121.34039 15608 ft 343 kts 122°
2026-04-15 21:52 14.27016 121.35925 16258 ft 346 kts 122°
2026-04-15 21:52 14.25812 121.37856 16899 ft 350 kts 122°
2026-04-15 21:52 14.24615 121.39777 17513 ft 353 kts 122°
2026-04-15 21:52 14.23388 121.41743 18122 ft 356 kts 122°
2026-04-15 21:53 14.22166 121.43698 18707 ft 359 kts 123°
2026-04-15 21:53 14.20935 121.45669 19277 ft 362 kts 123°
2026-04-15 21:53 14.19711 121.47627 19825 ft 365 kts 122°
2026-04-15 21:53 14.18459 121.49631 20366 ft 368 kts 122°
2026-04-15 21:54 14.17216 121.51620 20886 ft 371 kts 122°
2026-04-15 21:54 14.15982 121.53595 21385 ft 373 kts 122°
2026-04-15 21:54 14.14738 121.55584 21872 ft 376 kts 122°
2026-04-15 21:54 14.13523 121.57526 22332 ft 379 kts 122°
2026-04-15 21:55 14.12300 121.59481 22782 ft 381 kts 122°
2026-04-15 21:55 14.11028 121.61465 23225 ft 384 kts 126°
2026-04-15 21:55 14.09555 121.63362 23662 ft 386 kts 132°
2026-04-15 21:55 14.07947 121.65007 24071 ft 389 kts 139°
2026-04-15 21:56 14.06406 121.66302 24427 ft 391 kts 142°
2026-04-15 21:56 14.04546 121.67741 24834 ft 393 kts 143°
2026-04-15 21:56 14.02571 121.69234 25238 ft 395 kts 144°
2026-04-15 21:56 14.00551 121.70756 25636 ft 398 kts 144°
2026-04-15 21:57 13.98580 121.72244 26017 ft 400 kts 144°
2026-04-15 21:57 13.96571 121.73769 26396 ft 402 kts 143°
2026-04-15 21:57 13.94462 121.75372 26783 ft 405 kts 143°
2026-04-15 21:57 13.92335 121.76991 27161 ft 407 kts 143°
2026-04-15 21:58 13.90233 121.78591 27522 ft 409 kts 143°
2026-04-15 21:58 13.88320 121.80045 27840 ft 411 kts 143°
2026-04-15 21:58 13.86379 121.81515 28154 ft 413 kts 143°
2026-04-15 21:58 13.84208 121.83151 28494 ft 415 kts 144°
2026-04-15 21:59 13.82056 121.84770 28820 ft 417 kts 144°
2026-04-15 21:59 13.79957 121.86350 29129 ft 419 kts 144°
2026-04-15 21:59 13.77817 121.87962 29436 ft 421 kts 144°
2026-04-15 21:59 13.75668 121.89581 29735 ft 423 kts 144°
2026-04-15 22:00 13.73541 121.91184 30020 ft 425 kts 144°
2026-04-15 22:00 13.71406 121.92794 30299 ft 427 kts 144°
2026-04-15 22:00 13.69261 121.94411 30573 ft 428 kts 144°
2026-04-15 22:00 13.67140 121.96010 30836 ft 430 kts 144°
2026-04-15 22:01 13.65011 121.97614 31093 ft 432 kts 144°
2026-04-15 22:01 13.62873 121.99225 31345 ft 433 kts 144°
2026-04-15 22:01 13.60695 122.00866 31595 ft 435 kts 144°
2026-04-15 22:01 13.58475 122.02537 31843 ft 437 kts 143°
2026-04-15 22:02 13.56215 122.04240 32098 ft 438 kts 143°
2026-04-15 22:02 13.53888 122.05992 32431 ft 437 kts 144°
2026-04-15 22:02 13.51578 122.07730 32790 ft 436 kts 144°
2026-04-15 22:02 13.49214 122.09509 33139 ft 435 kts 143°
2026-04-15 22:03 13.46825 122.11307 33467 ft 434 kts 144°
2026-04-15 22:03 13.44473 122.13076 33776 ft 433 kts 144°
2026-04-15 22:03 13.42065 122.14887 34083 ft 432 kts 144°
2026-04-15 22:03 13.39717 122.16652 34376 ft 432 kts 144°
2026-04-15 22:04 13.37493 122.18323 34646 ft 431 kts 144°
2026-04-15 22:04 13.35147 122.20086 34922 ft 430 kts 144°
2026-04-15 22:04 13.32744 122.21891 35197 ft 430 kts 144°
2026-04-15 22:04 13.30384 122.23663 35457 ft 429 kts 143°
2026-04-15 22:05 13.28175 122.25323 35692 ft 428 kts 144°
2026-04-15 22:05 13.25825 122.27086 35933 ft 428 kts 144°
2026-04-15 22:05 13.23518 122.28818 36162 ft 427 kts 144°
2026-04-15 22:05 13.21175 122.30576 36381 ft 427 kts 144°
2026-04-15 22:06 13.19226 122.32038 36552 ft 427 kts 144°
2026-04-15 22:06 13.17044 122.33675 36732 ft 427 kts 144°
2026-04-15 22:06 13.14838 122.35329 36905 ft 427 kts 144°
2026-04-15 22:06 13.12592 122.37012 37076 ft 427 kts 144°
2026-04-15 22:07 13.10306 122.38724 37243 ft 427 kts 144°
2026-04-15 22:07 13.08004 122.40449 37411 ft 427 kts 144°
2026-04-15 22:07 13.05703 122.42173 37574 ft 427 kts 144°
2026-04-15 22:07 13.03407 122.43893 37731 ft 427 kts 144°
2026-04-15 22:08 13.01051 122.45657 37887 ft 427 kts 144°
2026-04-15 22:08 12.98726 122.47398 38035 ft 427 kts 144°
2026-04-15 22:08 12.96380 122.49153 38180 ft 426 kts 144°
2026-04-15 22:08 12.94041 122.50904 38321 ft 426 kts 144°
2026-04-15 22:09 12.91710 122.52647 38456 ft 426 kts 144°
2026-04-15 22:09 12.89354 122.54409 38587 ft 427 kts 144°
2026-04-15 22:09 12.87207 122.56006 38704 ft 427 kts 144°
2026-04-15 22:09 12.85253 122.57457 38810 ft 426 kts 144°
2026-04-15 22:10 12.82991 122.59139 38861 ft 428 kts 144°
2026-04-15 22:10 12.78237 122.62682 38871 ft 434 kts 144°
2026-04-15 22:11 12.73704 122.66068 38871 ft 438 kts 144°
2026-04-15 22:11 12.69102 122.69529 38871 ft 438 kts 144°
2026-04-15 22:12 12.64536 122.72951 38870 ft 438 kts 144°
2026-04-15 22:12 12.59997 122.76339 38871 ft 438 kts 144°
2026-04-15 22:13 12.55456 122.79724 38871 ft 438 kts 144°
2026-04-15 22:13 12.50914 122.83108 38871 ft 438 kts 144°
2026-04-15 22:14 12.46373 122.86491 38871 ft 438 kts 144°
2026-04-15 22:14 12.41864 122.89848 38871 ft 438 kts 144°
2026-04-15 22:15 12.37520 122.93082 38871 ft 438 kts 144°
2026-04-15 22:15 12.33109 122.96362 38871 ft 438 kts 144°
2026-04-15 22:16 12.28762 122.99592 38871 ft 438 kts 144°
2026-04-15 22:16 12.24382 123.02844 38871 ft 438 kts 144°
2026-04-15 22:17 12.20036 123.06072 38871 ft 438 kts 144°
2026-04-15 22:17 12.15788 123.09225 38871 ft 438 kts 144°
2026-04-15 22:18 12.11540 123.12377 38871 ft 438 kts 144°
2026-04-15 22:18 12.07127 123.15651 38871 ft 438 kts 144°
2026-04-15 22:19 12.02567 123.19032 38871 ft 438 kts 144°
2026-04-15 22:19 11.97860 123.22522 38871 ft 438 kts 144°
2026-04-15 22:20 11.93145 123.26015 38871 ft 438 kts 144°
2026-04-15 22:20 11.88611 123.29372 38871 ft 438 kts 144°
2026-04-15 22:21 11.84253 123.32578 38871 ft 438 kts 144°
2026-04-15 22:21 11.79628 123.35989 38871 ft 438 kts 144°
2026-04-15 22:22 11.74933 123.39459 38871 ft 438 kts 144°
2026-04-15 22:22 11.70304 123.42879 38871 ft 438 kts 144°
2026-04-15 22:23 11.65659 123.46313 38871 ft 438 kts 144°
2026-04-15 22:23 11.61145 123.49648 38871 ft 438 kts 144°
2026-04-15 22:24 11.56696 123.52934 38871 ft 438 kts 144°
2026-04-15 22:24 11.52215 123.56243 38871 ft 438 kts 144°
2026-04-15 22:25 11.47799 123.59502 38871 ft 438 kts 144°
2026-04-15 22:25 11.43482 123.62688 38871 ft 438 kts 144°
2026-04-15 22:26 11.39331 123.65754 38871 ft 438 kts 144°
2026-04-15 22:26 11.35124 123.68881 38871 ft 438 kts 144°
2026-04-15 22:27 11.30944 123.71976 38871 ft 438 kts 144°
2026-04-15 22:27 11.26797 123.75034 38688 ft 438 kts 144°
2026-04-15 22:27 11.24684 123.76590 38149 ft 441 kts 144°
2026-04-15 22:28 11.22627 123.78104 37549 ft 442 kts 144°
2026-04-15 22:28 11.20535 123.79641 37000 ft 441 kts 145°
2026-04-15 22:28 11.18389 123.81087 36468 ft 440 kts 148°
2026-04-15 22:28 11.16192 123.82361 35934 ft 439 kts 153°
2026-04-15 22:29 11.13879 123.83490 35363 ft 440 kts 156°
2026-04-15 22:29 11.11491 123.84450 34753 ft 440 kts 161°
2026-04-15 22:29 11.08995 123.85246 34108 ft 442 kts 165°
2026-04-15 22:29 11.06482 123.85848 33461 ft 443 kts 169°
2026-04-15 22:30 11.04015 123.86304 32832 ft 444 kts 170°
2026-04-15 22:30 11.01494 123.86736 32180 ft 446 kts 171°
2026-04-15 22:30 10.99005 123.87154 31524 ft 447 kts 171°
2026-04-15 22:30 10.96591 123.87560 30882 ft 448 kts 171°
2026-04-15 22:31 10.94089 123.87985 30210 ft 449 kts 171°
2026-04-15 22:31 10.91708 123.88393 29670 ft 448 kts 170°
2026-04-15 22:31 10.89668 123.88743 29316 ft 444 kts 170°
2026-04-15 22:31 10.87567 123.89105 28980 ft 439 kts 170°
2026-04-15 22:32 10.85328 123.89489 28624 ft 435 kts 170°
2026-04-15 22:32 10.83072 123.89877 28267 ft 430 kts 170°
2026-04-15 22:32 10.80917 123.90250 27926 ft 426 kts 170°
2026-04-15 22:32 10.78744 123.90625 27581 ft 422 kts 170°
2026-04-15 22:33 10.76512 123.91011 27228 ft 419 kts 170°
2026-04-15 22:33 10.74414 123.91374 26895 ft 415 kts 170°
2026-04-15 22:33 10.72333 123.91734 26565 ft 412 kts 170°
2026-04-15 22:33 10.70229 123.92099 26231 ft 409 kts 170°
2026-04-15 22:34 10.68140 123.92461 25898 ft 406 kts 170°
2026-04-15 22:34 10.66101 123.92815 25572 ft 404 kts 170°
2026-04-15 22:34 10.64002 123.93178 25238 ft 401 kts 170°
2026-04-15 22:34 10.61952 123.93533 24911 ft 399 kts 170°
2026-04-15 22:35 10.60096 123.93855 24615 ft 397 kts 170°
2026-04-15 22:35 10.58285 123.94171 24325 ft 395 kts 170°
2026-04-15 22:35 10.56448 123.94492 24031 ft 393 kts 170°
2026-04-15 22:35 10.54299 123.94865 23703 ft 390 kts 170°
2026-04-15 22:36 10.52098 123.95248 23385 ft 387 kts 170°
2026-04-15 22:36 10.49807 123.95646 23023 ft 384 kts 170°
2026-04-15 22:36 10.47494 123.96046 22650 ft 382 kts 170°
2026-04-15 22:36 10.45197 123.96444 22279 ft 379 kts 170°
2026-04-15 22:37 10.42846 123.96851 21896 ft 377 kts 170°
2026-04-15 22:37 10.40511 123.97255 21516 ft 374 kts 170°
2026-04-15 22:37 10.38191 123.97656 21136 ft 371 kts 170°
2026-04-15 22:37 10.35820 123.98066 20747 ft 369 kts 170°
2026-04-15 22:38 10.33374 123.98489 20346 ft 366 kts 170°
2026-04-15 22:38 10.30908 123.98843 19941 ft 364 kts 174°
2026-04-15 22:38 10.28434 123.99053 19542 ft 361 kts 176°
2026-04-15 22:38 10.26004 123.99222 19144 ft 358 kts 176°
2026-04-15 22:39 10.23737 123.99375 18774 ft 356 kts 176°
2026-04-15 22:39 10.21370 123.99536 18385 ft 354 kts 176°
2026-04-15 22:39 10.19052 123.99696 18003 ft 351 kts 176°
2026-04-15 22:39 10.16749 123.99856 17623 ft 349 kts 176°
2026-04-15 22:40 10.14590 124.00006 17265 ft 347 kts 176°
2026-04-15 22:40 10.12348 124.00163 16891 ft 345 kts 176°
2026-04-15 22:40 10.10184 124.00316 16530 ft 343 kts 176°
2026-04-15 22:41 10.05894 124.00618 15809 ft 338 kts 176°
2026-04-15 22:41 10.03830 124.00764 15462 ft 337 kts 176°
2026-04-15 22:41 10.01778 124.00908 15115 ft 335 kts 176°
2026-04-15 22:41 9.99768 124.01049 14775 ft 333 kts 176°
2026-04-15 22:42 9.97768 124.01189 14436 ft 331 kts 176°
2026-04-15 22:42 9.95718 124.01334 14086 ft 329 kts 176°
2026-04-15 22:42 9.93709 124.01475 13745 ft 328 kts 176°
2026-04-15 22:42 9.91771 124.01605 13413 ft 326 kts 178°
2026-04-15 22:43 9.90262 124.01562 13149 ft 325 kts 186°
2026-04-15 22:43 9.89104 124.01374 12948 ft 324 kts 193°
2026-04-15 22:43 9.87865 124.01012 12726 ft 322 kts 200°
2026-04-15 22:43 9.86368 124.00404 12460 ft 321 kts 203°
2026-04-15 22:44 9.84737 123.99670 12156 ft 319 kts 204°
2026-04-15 22:44 9.83255 123.98989 11876 ft 318 kts 204°
2026-04-15 22:44 9.81456 123.98164 11536 ft 316 kts 204°
2026-04-15 22:44 9.79637 123.97337 11191 ft 315 kts 204°
2026-04-15 22:45 9.77824 123.96519 10847 ft 313 kts 204°
2026-04-15 22:45 9.76165 123.95776 10531 ft 312 kts 204°
2026-04-15 22:45 9.74365 123.94972 10186 ft 311 kts 204°
2026-04-15 22:45 9.72539 123.94158 10030 ft 300 kts 204°
2026-04-15 22:46 9.70791 123.93380 10003 ft 287 kts 204°
2026-04-15 22:46 9.69088 123.92622 9723 ft 286 kts 204°
2026-04-15 22:46 9.67412 123.91876 9404 ft 285 kts 204°
2026-04-15 22:46 9.65651 123.91093 9085 ft 283 kts 204°
2026-04-15 22:47 9.64042 123.90375 8796 ft 282 kts 204°
2026-04-15 22:47 9.62342 123.89540 8487 ft 280 kts 207°
2026-04-15 22:47 9.60639 123.88665 8174 ft 279 kts 207°
2026-04-15 22:47 9.58943 123.87789 7862 ft 277 kts 207°
2026-04-15 22:48 9.57221 123.86903 7547 ft 280 kts 207°
2026-04-15 22:48 9.55556 123.86050 7237 ft 279 kts 207°
2026-04-15 22:48 9.54122 123.85315 6973 ft 278 kts 207°
2026-04-15 22:48 9.52432 123.84448 6662 ft 276 kts 207°
2026-04-15 22:49 9.50774 123.83596 6356 ft 275 kts 207°
2026-04-15 22:49 9.49088 123.82731 6065 ft 274 kts 207°
2026-04-15 22:49 9.47420 123.81876 5979 ft 276 kts 207°
2026-04-15 22:49 9.45708 123.81001 5490 ft 282 kts 207°
2026-04-15 22:50 9.44019 123.80136 5124 ft 280 kts 207°
2026-04-15 22:50 9.42293 123.79251 4795 ft 276 kts 207°
2026-04-15 22:50 9.40619 123.78394 4483 ft 273 kts 207°
2026-04-15 22:50 9.38932 123.77529 4171 ft 270 kts 207°
2026-04-15 22:51 9.37380 123.76567 3979 ft 263 kts 225°
2026-04-15 22:51 9.36551 123.75050 3977 ft 246 kts 261°
2026-04-15 22:51 9.36688 123.73426 3979 ft 229 kts 292°
2026-04-15 22:51 9.37419 123.72063 3837 ft 222 kts 303°
2026-04-15 22:52 9.38256 123.70779 3620 ft 218 kts 304°
2026-04-15 22:52 9.39059 123.69534 3419 ft 215 kts 303°
2026-04-15 22:52 9.39894 123.68374 3157 ft 211 kts 317°
2026-04-15 22:52 9.41184 123.67793 2772 ft 210 kts 355°
2026-04-15 22:53 9.42505 123.68093 2669 ft 194 kts 27°
2026-04-15 22:53 9.43617 123.68752 2637 ft 177 kts 32°
2026-04-15 22:53 9.44605 123.69384 2538 ft 166 kts 32°
2026-04-15 22:53 9.45496 123.69945 2449 ft 153 kts 31°
2026-04-15 22:54 9.46357 123.70473 2375 ft 151 kts 31°
2026-04-15 22:54 9.47270 123.71024 2151 ft 152 kts 31°
2026-04-15 22:54 9.48142 123.71545 1883 ft 144 kts 31°
2026-04-15 22:54 9.48965 123.72043 1708 ft 138 kts 31°
2026-04-15 22:55 9.49648 123.72453 1565 ft 138 kts 30°
2026-04-15 22:55 9.50246 123.72810 1432 ft 138 kts 30°
2026-04-15 22:55 9.51011 123.73265 1263 ft 137 kts 30°
2026-04-15 22:55 9.51795 123.73733 1090 ft 137 kts 31°
2026-04-15 22:56 9.52602 123.74216 911 ft 137 kts 31°
2026-04-15 22:56 9.53410 123.74701 732 ft 136 kts 31°
2026-04-15 22:56 9.54215 123.75183 554 ft 136 kts 30°
2026-04-15 22:56 9.55027 123.75665 392 ft 136 kts 31°
2026-04-15 22:57 9.55836 123.76142 189 ft 136 kts 29°
2026-04-15 22:57 9.56562 123.76576 75 ft 135 kts 29°
2026-04-15 22:57 9.57265 123.76988 51 ft 112 kts 31°
2026-04-15 22:57 9.57766 123.77290 51 ft 68 kts 30°
2026-04-15 22:58 9.58017 123.77436 50 ft 28 kts 28°
2026-04-15 22:58 9.58113 123.77487 50 ft 7 kts 72°
2026-04-15 22:58 9.58071 123.77474 50 ft 9 kts 218°
2026-04-15 22:58 9.58015 123.77438 50 ft 10 kts 211°
2026-04-15 22:59 9.57949 123.77398 50 ft 12 kts 211°
2026-04-15 22:59 9.57891 123.77362 50 ft 13 kts 211°
2026-04-15 22:59 9.57825 123.77322 50 ft 14 kts 210°
2026-04-15 22:59 9.57740 123.77273 50 ft 15 kts 209°
2026-04-15 23:00 9.57650 123.77223 50 ft 16 kts 209°
2026-04-15 23:00 9.57555 123.77165 50 ft 17 kts 212°
2026-04-15 23:00 9.57455 123.77103 50 ft 18 kts 210°
2026-04-15 23:00 9.57355 123.77101 50 ft 18 kts 130°
2026-04-15 23:01 9.57296 123.77199 50 ft 19 kts 121°
2026-04-15 23:01 9.57233 123.77243 50 ft 11 kts 194°
2026-04-15 23:01 9.57169 123.77208 50 ft 13 kts 212°
2026-04-15 23:01 9.57099 123.77168 50 ft 14 kts 210°
2026-04-15 23:02 9.57027 123.77125 50 ft 9 kts 200°
2026-04-15 23:02 9.57015 123.77136 50 ft 3 kts 107°
2026-04-15 23:02 9.57009 123.77160 50 ft 5 kts 112°
2026-04-15 23:02 9.56991 123.77191 50 ft 7 kts 122°
2026-04-15 23:03 9.56979 123.77212 50 ft 0 kts 121°
2026-04-15 23:13 9.56987 123.77198 50 ft 4 kts 121°
2026-04-15 23:14 9.56998 123.77180 50 ft 3 kts 121°
2026-04-15 23:14 9.57008 123.77163 50 ft 3 kts 120°
2026-04-15 23:14 9.57018 123.77145 50 ft 3 kts 120°
2026-04-15 23:14 9.57028 123.77129 50 ft 3 kts 119°
2026-04-15 23:15 9.57038 123.77110 50 ft 3 kts 119°
2026-04-15 23:15 9.57048 123.77091 50 ft 3 kts 118°
2026-04-15 23:15 9.57048 123.77090 50 ft 0 kts 118°
2026-04-15 23:16 9.57048 123.77092 50 ft 2 kts 118°
2026-04-15 23:17 9.57017 123.77111 50 ft 7 kts 183°
2026-04-15 23:17 9.56970 123.77090 50 ft 9 kts 212°
2026-04-15 23:17 9.56919 123.77059 50 ft 10 kts 208°
2026-04-15 23:17 9.56853 123.77023 50 ft 11 kts 212°
2026-04-15 23:18 9.56844 123.76965 50 ft 10 kts 290°
2026-04-15 23:18 9.56880 123.76901 50 ft 11 kts 302°
2026-04-15 23:18 9.56924 123.76828 50 ft 13 kts 302°
2026-04-15 23:18 9.56916 123.76775 50 ft 9 kts 209°
2026-04-15 23:19 9.56855 123.76746 50 ft 10 kts 203°
2026-04-15 23:19 9.56788 123.76706 50 ft 13 kts 211°
2026-04-15 23:19 9.56691 123.76646 50 ft 19 kts 211°
2026-04-15 23:19 9.56600 123.76591 50 ft 23 kts 210°
2026-04-15 23:20 9.56457 123.76545 50 ft 19 kts 196°
2026-04-15 23:20 9.56448 123.76507 50 ft 9 kts 15°
2026-04-15 23:20 9.56509 123.76536 50 ft 10 kts 32°
2026-04-15 23:20 9.56663 123.76630 50 ft 58 kts 31°
2026-04-15 23:21 9.57158 123.76927 51 ft 120 kts 28°
2026-04-15 23:21 9.58008 123.77419 159 ft 162 kts 28°
2026-04-15 23:21 9.58932 123.77956 901 ft 153 kts 31°
2026-04-15 23:21 9.59843 123.78406 1564 ft 152 kts
2026-04-15 23:22 9.60887 123.78355 2075 ft 157 kts 349°
2026-04-15 23:22 9.61987 123.78119 2431 ft 173 kts 347°
2026-04-15 23:22 9.63204 123.77845 2816 ft 190 kts 348°
2026-04-15 23:22 9.64511 123.77575 3213 ft 207 kts 349°
2026-04-15 23:23 9.65940 123.77300 3658 ft 225 kts 349°
2026-04-15 23:23 9.67489 123.77017 4150 ft 243 kts 350°
2026-04-15 23:23 9.69141 123.76723 4846 ft 252 kts 350°
2026-04-15 23:23 9.70701 123.76447 5642 ft 254 kts 350°
2026-04-15 23:24 9.72346 123.76157 6450 ft 256 kts 350°
2026-04-15 23:24 9.73926 123.75880 7195 ft 259 kts 350°
2026-04-15 23:24 9.75614 123.75583 7971 ft 262 kts 350°
2026-04-15 23:24 9.77292 123.75299 8723 ft 265 kts 352°
2026-04-15 23:25 9.78998 123.75121 9454 ft 268 kts 356°
2026-04-15 23:25 9.80777 123.75065 9931 ft 282 kts 359°
2026-04-15 23:25 9.82692 123.75048 10346 ft 299 kts 360°
2026-04-15 23:25 9.84754 123.75037 10736 ft 316 kts 360°
2026-04-15 23:26 9.86921 123.75021 11335 ft 326 kts 359°
2026-04-15 23:26 9.89068 123.74855 12106 ft 329 kts 349°
2026-04-15 23:26 9.91122 123.74263 12851 ft 332 kts 338°
2026-04-15 23:26 9.93026 123.73300 13551 ft 335 kts 330°
2026-04-15 23:27 9.94914 123.72192 14234 ft 338 kts 329°
2026-04-15 23:27 9.96729 123.71100 14864 ft 341 kts 329°
2026-04-15 23:27 9.98591 123.69985 15492 ft 345 kts 329°
2026-04-15 23:27 10.00362 123.68933 16070 ft 347 kts 330°
2026-04-15 23:28 10.02180 123.67860 16642 ft 350 kts 330°
2026-04-15 23:28 10.03959 123.66816 17182 ft 353 kts 330°
2026-04-15 23:28 10.05781 123.65749 17718 ft 356 kts 330°
2026-04-15 23:28 10.07676 123.64640 18259 ft 359 kts 330°
2026-04-15 23:29 10.09558 123.63541 18780 ft 361 kts 330°
2026-04-15 23:29 10.11308 123.62521 19249 ft 364 kts 330°
2026-04-15 23:29 10.13161 123.61445 19731 ft 367 kts 330°
2026-04-15 23:29 10.14908 123.60430 20173 ft 369 kts 330°
2026-04-15 23:30 10.16875 123.59285 20656 ft 372 kts 330°
2026-04-15 23:30 10.18885 123.58112 21135 ft 374 kts 330°
2026-04-15 23:30 10.20938 123.56912 21608 ft 377 kts 330°
2026-04-15 23:30 10.22975 123.55721 22063 ft 379 kts 330°
2026-04-15 23:31 10.25025 123.54522 22508 ft 382 kts 330°
2026-04-15 23:31 10.27121 123.53297 22948 ft 384 kts 330°
2026-04-15 23:31 10.29198 123.52082 23371 ft 387 kts 330°
2026-04-15 23:31 10.31291 123.50863 23785 ft 389 kts 330°
2026-04-15 23:32 10.33397 123.49638 24189 ft 391 kts 330°
2026-04-15 23:32 10.35451 123.48441 24572 ft 394 kts 330°
2026-04-15 23:32 10.37453 123.47274 24935 ft 396 kts 330°
2026-04-15 23:32 10.39466 123.46101 25286 ft 398 kts 330°
2026-04-15 23:33 10.41488 123.44920 25630 ft 400 kts 330°
2026-04-15 23:33 10.43489 123.43752 25962 ft 402 kts 330°
2026-04-15 23:33 10.45434 123.42615 26277 ft 404 kts 330°
2026-04-15 23:33 10.47388 123.41473 26586 ft 406 kts 330°
2026-04-15 23:34 10.49450 123.40269 26903 ft 408 kts 330°
2026-04-15 23:34 10.51578 123.39025 27220 ft 409 kts 330°
2026-04-15 23:34 10.54031 123.37592 27575 ft 412 kts 330°
2026-04-15 23:36 10.65288 123.30978 29064 ft 421 kts 330°
2026-04-15 23:36 10.67154 123.29885 29293 ft 422 kts 330°
2026-04-15 23:36 10.69196 123.28690 29533 ft 424 kts 330°
2026-04-15 23:36 10.71453 123.27372 29792 ft 426 kts 330°
2026-04-15 23:37 10.73751 123.26028 30087 ft 426 kts 330°
2026-04-15 23:37 10.75805 123.24826 30408 ft 425 kts 330°
2026-04-15 23:37 10.78091 123.23486 30768 ft 424 kts 330°
2026-04-15 23:37 10.80438 123.22110 31112 ft 422 kts 330°
2026-04-15 23:38 10.82712 123.20776 31425 ft 422 kts 330°
2026-04-15 23:38 10.84984 123.19443 31727 ft 421 kts 330°
2026-04-15 23:38 10.87285 123.18094 32027 ft 421 kts 330°
2026-04-15 23:38 10.89583 123.16746 32321 ft 420 kts 330°
2026-04-15 23:39 10.91877 123.15400 32607 ft 419 kts 330°
2026-04-15 23:39 10.94101 123.14095 32877 ft 419 kts 330°
2026-04-15 23:39 10.96287 123.12812 33136 ft 418 kts 330°
2026-04-15 23:39 10.98436 123.11550 33383 ft 417 kts 330°
2026-04-15 23:40 11.00482 123.10349 33613 ft 417 kts 330°
2026-04-15 23:40 11.02559 123.09129 33820 ft 417 kts 330°
2026-04-15 23:40 11.04605 123.07927 33868 ft 419 kts 330°
2026-04-15 23:41 11.08795 123.05466 33876 ft 427 kts 330°
2026-04-15 23:41 11.12891 123.03065 33877 ft 428 kts 330°
2026-04-15 23:42 11.17128 123.00588 33877 ft 428 kts 330°
2026-04-15 23:42 11.21258 122.98164 33877 ft 428 kts 330°
2026-04-15 23:43 11.25351 122.95757 33877 ft 428 kts 330°
2026-04-15 23:43 11.29855 122.93105 33877 ft 428 kts 330°
2026-04-15 23:44 11.34360 122.90453 33877 ft 428 kts 330°
2026-04-15 23:44 11.38968 122.87743 33877 ft 428 kts 330°
2026-04-15 23:45 11.43575 122.85030 33877 ft 428 kts 330°
2026-04-15 23:45 11.48387 122.82194 33877 ft 427 kts 330°
2026-04-15 23:46 11.53316 122.79286 33877 ft 427 kts 330°
2026-04-15 23:46 11.58346 122.76319 33877 ft 427 kts 329°
2026-04-15 23:47 11.63203 122.73189 33877 ft 427 kts 327°
2026-04-15 23:47 11.68063 122.69914 33877 ft 427 kts 326°
2026-04-15 23:48 11.72911 122.66644 33877 ft 427 kts 327°
2026-04-15 23:48 11.77832 122.63327 33877 ft 427 kts 327°
2026-04-15 23:49 11.82759 122.60007 33877 ft 427 kts 327°
2026-04-15 23:49 11.87633 122.56720 33877 ft 427 kts 327°
2026-04-15 23:50 11.92537 122.53413 33877 ft 427 kts 327°
2026-04-15 23:50 11.97433 122.50109 33877 ft 427 kts 327°
2026-04-15 23:51 12.04773 122.45153 33877 ft 427 kts 327°
2026-04-15 23:51 12.09526 122.41942 33877 ft 427 kts 327°
2026-04-15 23:52 12.14059 122.38892 33878 ft 427 kts 327°
2026-04-15 23:52 12.18969 122.35584 33878 ft 427 kts 327°
2026-04-15 23:53 12.23652 122.32401 33877 ft 427 kts 326°
2026-04-15 23:53 12.28371 122.29188 33877 ft 427 kts 326°
2026-04-15 23:54 12.33032 122.26028 33877 ft 427 kts 326°
2026-04-15 23:54 12.37692 122.22868 33877 ft 427 kts 326°
2026-04-15 23:55 12.42322 122.19660 33877 ft 427 kts 326°
2026-04-15 23:55 12.46846 122.16512 33877 ft 427 kts 326°
2026-04-15 23:56 12.51437 122.13319 33877 ft 427 kts 326°
2026-04-15 23:56 12.56082 122.10091 33877 ft 427 kts 326°
2026-04-15 23:57 12.60825 122.06792 33877 ft 427 kts 326°
2026-04-15 23:57 12.65480 122.03554 33877 ft 427 kts 326°
2026-04-15 23:58 12.70176 122.00286 33877 ft 427 kts 326°
2026-04-15 23:58 12.74837 121.97041 33877 ft 427 kts 326°
2026-04-15 23:59 12.79579 121.93739 33877 ft 427 kts 326°
2026-04-15 23:59 12.83222 121.91200 33461 ft 427 kts 326°
2026-04-16 00:00 12.85545 121.89580 32766 ft 431 kts 326°
2026-04-16 00:00 12.87944 121.87908 32124 ft 431 kts 326°
2026-04-16 00:00 12.90323 121.86249 31516 ft 431 kts 326°
2026-04-16 00:00 12.92764 121.84547 30850 ft 431 kts 326°
2026-04-16 00:01 12.95167 121.82871 30158 ft 432 kts 326°
2026-04-16 00:01 12.97490 121.81250 29473 ft 434 kts 326°
2026-04-16 00:01 12.99792 121.79643 28785 ft 435 kts 326°
2026-04-16 00:01 13.02143 121.78002 27995 ft 438 kts 326°
2026-04-16 00:02 13.04539 121.76330 27550 ft 432 kts 326°
2026-04-16 00:02 13.06892 121.74686 27128 ft 426 kts 326°
2026-04-16 00:02 13.09231 121.73052 26701 ft 421 kts 326°
2026-04-16 00:02 13.11295 121.71611 26320 ft 417 kts 326°
2026-04-16 00:03 13.13273 121.70237 25955 ft 413 kts 326°
2026-04-16 00:03 13.15137 121.68941 25611 ft 410 kts 326°
2026-04-16 00:03 13.16268 121.68155 25402 ft 408 kts 326°
2026-04-16 00:03 13.17891 121.67024 25101 ft 405 kts 326°
2026-04-16 00:04 13.19356 121.66001 24830 ft 403 kts 326°
2026-04-16 00:04 13.20956 121.64883 24532 ft 400 kts 326°
2026-04-16 00:04 13.22272 121.63963 24287 ft 399 kts 326°
2026-04-16 00:04 13.24085 121.62695 23950 ft 396 kts 326°
2026-04-16 00:05 13.25832 121.61473 23624 ft 394 kts 326°
2026-04-16 00:05 13.27021 121.60641 23402 ft 392 kts 326°
2026-04-16 00:05 13.28970 121.59277 23037 ft 390 kts 326°
2026-04-16 00:05 13.30936 121.57900 22668 ft 387 kts 326°
2026-04-16 00:06 13.32860 121.56551 22306 ft 385 kts 326°
2026-04-16 00:06 13.34683 121.55274 21962 ft 382 kts 326°
2026-04-16 00:06 13.36406 121.54067 21636 ft 380 kts 326°
2026-04-16 00:06 13.38381 121.52682 21260 ft 378 kts 326°
2026-04-16 00:07 13.40321 121.51321 20892 ft 375 kts 326°
2026-04-16 00:07 13.42271 121.49954 20520 ft 373 kts 326°
2026-04-16 00:07 13.44122 121.48655 20166 ft 370 kts 326°
2026-04-16 00:07 13.45961 121.47364 19814 ft 368 kts 326°
2026-04-16 00:08 13.47817 121.46061 19457 ft 366 kts 326°
2026-04-16 00:08 13.49633 121.44785 19107 ft 363 kts 326°
2026-04-16 00:08 13.51383 121.43556 18770 ft 361 kts 326°
2026-04-16 00:08 13.53094 121.42354 18440 ft 359 kts 326°
2026-04-16 00:09 13.54796 121.41159 18110 ft 357 kts 326°
2026-04-16 00:09 13.56352 121.40067 17809 ft 355 kts 326°
2026-04-16 00:09 13.58003 121.38896 17491 ft 353 kts 325°
2026-04-16 00:09 13.59571 121.37743 17185 ft 351 kts 324°
2026-04-16 00:10 13.61124 121.36584 16962 ft 349 kts 324°
2026-04-16 00:10 13.62649 121.35442 16928 ft 351 kts 324°
2026-04-16 00:10 13.63994 121.34435 16902 ft 351 kts 323°
2026-04-16 00:10 13.65518 121.33286 16605 ft 352 kts 323°
2026-04-16 00:11 13.67083 121.32106 15967 ft 359 kts 323°
2026-04-16 00:11 13.68678 121.30907 15403 ft 362 kts 324°
2026-04-16 00:11 13.70330 121.29669 15022 ft 360 kts 324°
2026-04-16 00:11 13.71943 121.28463 14689 ft 356 kts 324°
2026-04-16 00:12 13.73567 121.27249 14357 ft 353 kts 324°
2026-04-16 00:12 13.75230 121.26007 14017 ft 350 kts 324°
2026-04-16 00:12 13.76828 121.24814 13688 ft 347 kts 324°
2026-04-16 00:12 13.78468 121.23591 13351 ft 345 kts 324°
2026-04-16 00:13 13.80045 121.22413 13027 ft 343 kts 324°
2026-04-16 00:13 13.81614 121.21242 12702 ft 341 kts 324°
2026-04-16 00:13 13.83199 121.20059 12375 ft 339 kts 324°
2026-04-16 00:13 13.84749 121.18902 12055 ft 337 kts 324°
2026-04-16 00:14 13.86291 121.17751 11734 ft 335 kts 324°
2026-04-16 00:14 13.87824 121.16606 11416 ft 333 kts 324°
2026-04-16 00:14 13.89248 121.15543 11120 ft 331 kts 324°
2026-04-16 00:14 13.90765 121.14410 10802 ft 330 kts 324°
2026-04-16 00:15 13.92272 121.13284 10488 ft 328 kts 324°
2026-04-16 00:15 13.93772 121.12164 10174 ft 326 kts 324°
2026-04-16 00:15 13.95254 121.11056 9990 ft 318 kts 324°
2026-04-16 00:15 13.96797 121.09902 9968 ft 304 kts 324°
2026-04-16 00:16 13.98233 121.08829 9820 ft 296 kts 324°
2026-04-16 00:16 13.99673 121.07751 9508 ft 294 kts 324°
2026-04-16 00:16 14.01102 121.06682 9218 ft 291 kts 324°
2026-04-16 00:16 14.02559 121.05592 9014 ft 287 kts 324°
2026-04-16 00:17 14.04009 121.04507 8993 ft 288 kts 324°
2026-04-16 00:17 14.05508 121.03385 8990 ft 289 kts 324°
2026-04-16 00:17 14.06986 121.02280 8989 ft 289 kts 324°
2026-04-16 00:17 14.08442 121.01190 8989 ft 289 kts 324°
2026-04-16 00:18 14.09942 121.00069 8989 ft 289 kts 324°
2026-04-16 00:18 14.11214 120.99120 8989 ft 289 kts 324°
2026-04-16 00:18 14.12256 120.98346 8964 ft 286 kts 324°
2026-04-16 00:18 14.13308 120.97564 8790 ft 284 kts 324°
2026-04-16 00:19 14.14718 120.96514 8400 ft 285 kts 324°
2026-04-16 00:19 14.16121 120.95465 8122 ft 282 kts 324°
2026-04-16 00:19 14.17576 120.94436 7891 ft 277 kts 328°
2026-04-16 00:19 14.19026 120.93548 7640 ft 273 kts 330°
2026-04-16 00:20 14.20383 120.92748 7410 ft 269 kts 330°
2026-04-16 00:20 14.21488 120.92101 7224 ft 267 kts 330°
2026-04-16 00:20 14.22538 120.91486 7049 ft 264 kts 330°
2026-04-16 00:20 14.23704 120.90801 6855 ft 261 kts 330°
2026-04-16 00:21 14.24668 120.90233 6695 ft 258 kts 330°
2026-04-16 00:21 14.26082 120.89398 6492 ft 253 kts 330°
2026-04-16 00:21 14.27447 120.88591 6301 ft 248 kts 330°
2026-04-16 00:21 14.28762 120.87821 6089 ft 245 kts 330°
2026-04-16 00:22 14.30108 120.87043 5997 ft 235 kts 330°
2026-04-16 00:22 14.31398 120.86298 5943 ft 225 kts 331°
2026-04-16 00:22 14.32693 120.85549 5634 ft 226 kts 331°
2026-04-16 00:22 14.33966 120.84813 5346 ft 227 kts 330°
2026-04-16 00:23 14.34994 120.84218 5139 ft 226 kts 331°
2026-04-16 00:23 14.36167 120.83538 4901 ft 225 kts 330°
2026-04-16 00:23 14.37326 120.82861 4711 ft 222 kts 330°
2026-04-16 00:23 14.38511 120.82175 4515 ft 219 kts 332°
2026-04-16 00:24 14.39816 120.81744 4263 ft 215 kts 360°
2026-04-16 00:24 14.40989 120.82132 3981 ft 211 kts 37°
2026-04-16 00:24 14.41690 120.83166 3703 ft 207 kts 70°
2026-04-16 00:24 14.42011 120.84391 3395 ft 206 kts 78°
2026-04-16 00:25 14.42233 120.85511 3186 ft 203 kts 77°
2026-04-16 00:25 14.42566 120.86674 2961 ft 199 kts 70°
2026-04-16 00:25 14.43023 120.87766 2753 ft 193 kts 64°
2026-04-16 00:25 14.43517 120.88738 2559 ft 188 kts 61°
2026-04-16 00:26 14.44046 120.89697 2352 ft 183 kts 60°
2026-04-16 00:26 14.44570 120.90630 2122 ft 170 kts 60°
2026-04-16 00:26 14.45052 120.91486 1928 ft 158 kts 60°
2026-04-16 00:26 14.45496 120.92283 1746 ft 146 kts 60°
2026-04-16 00:27 14.45894 120.92999 1595 ft 142 kts 60°
2026-04-16 00:27 14.46321 120.93771 1445 ft 142 kts 60°
2026-04-16 00:27 14.46742 120.94530 1292 ft 142 kts 60°
2026-04-16 00:27 14.47162 120.95286 1138 ft 142 kts 60°
2026-04-16 00:28 14.47614 120.96100 971 ft 141 kts 60°
2026-04-16 00:28 14.47987 120.96770 846 ft 141 kts 59°
2026-04-16 00:28 14.48372 120.97448 710 ft 141 kts 61°
2026-04-16 00:28 14.48761 120.98200 535 ft 141 kts 59°
2026-04-16 00:29 14.49169 120.98921 381 ft 140 kts 58°
2026-04-16 00:29 14.49568 120.99631 233 ft 139 kts 60°
2026-04-16 00:29 14.49950 121.00316 122 ft 138 kts 60°
2026-04-16 00:29 14.50313 121.00967 85 ft 127 kts 59°
2026-04-16 00:30 14.50606 121.01494 84 ft 89 kts 60°
2026-04-16 00:30 14.50790 121.01826 84 ft 57 kts 60°
2026-04-16 00:30 14.50904 121.02007 83 ft 16 kts 19°
2026-04-16 00:30 14.50962 121.01996 83 ft 13 kts 321°
2026-04-16 00:31 14.51019 121.01937 83 ft 14 kts 316°
2026-04-16 00:31 14.51072 121.01908 83 ft 8 kts 34°
2026-04-16 00:31 14.51112 121.01936 83 ft 9 kts 346°
2026-04-16 00:31 14.51156 121.01900 83 ft 10 kts 315°
2026-04-16 00:32 14.51203 121.01852 83 ft 11 kts 316°
2026-04-16 00:32 14.51255 121.01798 83 ft 13 kts 313°
2026-04-16 00:32 14.51310 121.01740 83 ft 14 kts 315°
2026-04-16 00:32 14.51371 121.01677 83 ft 15 kts 315°
2026-04-16 00:33 14.51440 121.01607 83 ft 16 kts 315°
2026-04-16 00:33 14.51494 121.01551 83 ft 8 kts 324°
2026-04-16 00:33 14.51532 121.01572 83 ft 9 kts 50°
2026-04-16 00:33 14.51571 121.01613 83 ft 5 kts 44°
2026-04-16 00:34 14.51572 121.01614 83 ft 0 kts 44°